Regional Weather Roundup
Issued by NWS

Home | Current Version | Previous Version | Text Only | Print | Product List | Glossary On
Versions: 1 2 3 4 5 6 7 8 9 10 11 12 13 14 15 16 17 18 19 20 21 22 23 24 25 26 27 28 29 30 31 32 33 34 35 36 37 38 39 40 41 42 43 44 45 46 47 48 49 50
000
ASUS43 KMPX 040410
RWRMN
WEATHER ROUNDUP FOR MINNESOTA
NATIONAL WEATHER SERVICE TWIN CITIES/CHANHASSEN MN
1100 PM CDT SUN MAY 03 2015


NOTE: "FAIR" INDICATES FEW OR NO CLOUDS BELOW 12,000 FEET WITH NO
SIGNIFICANT WEATHER AND/OR OBSTRUCTIONS TO VISIBILITY. N/A MEANS
CURRENT SKY AND/OR WEATHER CONDITIONS ARE NOT AVAILABLE.

MNZ060>063-068>070-040500-
   Twin Cities Metro

CITY           SKY/WX    TMP DP  RH WIND       PRES   REMARKS
TWIN CITIES    CLOUDY    61  45  55 N8        29.92R
ST PAUL        CLOUDY    59  46  62 NW8       29.92R
CRYSTAL        CLOUDY    58  45  62 NW5       29.91R
BLAINE         CLOUDY    57  46  67 CALM      29.92R
LAKEVILLE      CLOUDY    54  48  82 W3        29.91R
EDEN PRAIRIE   MOCLDY    61  43  51 NW6       29.91R
SOUTH ST PAUL  CLOUDY    61  46  58 N5        29.91R
LAKE ELMO      FAIR      55  48  76 N5        29.91R
$$
MNZ001>005-007-008-013>017-022>024-027-028-040500-
   Northwest Minnesota

CITY           SKY/WX    TMP DP  RH WIND       PRES   REMARKS
BEMIDJI        CLEAR     52  32  47 N7        29.97R
HALLOCK        CLEAR     50  28  43 N6        30.00R
ROSEAU         CLEAR     45  32  61 N5        29.99R
WARROAD        CLEAR     48  37  66 N8        30.00R
THIEF RVR FALL CLEAR     52  32  46 N6        30.00R
CROOKSTON      PTCLDY    48  28  46 NE5       30.00R
DETROIT LAKES  CLEAR     54  27  35 N7        29.98R
MOORHEAD       CLEAR     50  25  37 NW8       30.00R
PARK RAPIDS    CLEAR     50  26  39 N7        29.96R
MAHNOMEN       FAIR      48  25  40 N8        29.98R
$$
MNZ006-009>011-018-025>026-040500-
   North Central Minnesota

CITY           SKY/WX    TMP DP  RH WIND       PRES   REMARKS
BAUDETTE       CLEAR     46  37  71 N3        29.98R
FLAG ISLAND    CLEAR     50  39  66 NW10      29.98R
INTL FALLS     CLEAR     47  34  60 NW7       29.95R
WASKISH        CLEAR     48  37  66 CALM      29.98R
BIG FORK       CLEAR     52  34  50 N7        29.96R
LONGVILLE      CLEAR     54  28  37 CALM      29.95R
GRAND RAPIDS   CLEAR     55  27  33 N9        29.95R
CRANE LAKE     CLEAR     52  36  54 N9G16     29.95R
ORR            CLEAR     54  30  40 NW6       29.91R
COOK           CLEAR     54  32  43 NW3       29.94R
WALKER         FAIR      54  28  37 N7        29.97R
$$
MNZ012-019>021-037-040500-
   Northeast Minnesota

CITY           SKY/WX    TMP DP  RH WIND       PRES   REMARKS
DULUTH         PTCLDY    51  33  50 W8        29.93R
ELY            CLEAR     50  28  43 NW5       29.92R
HIBBING        CLEAR     54  28  36 N12       29.94R
EVELETH        CLEAR     55  30  38 N13G21    29.94R
DULUTH HARBOR  CLEAR     55  45  67 W5        29.91F
TWO HARBORS    CLEAR     54  36  50 W5        29.91R
SILVER BAY     CLEAR     45  36  70 CALM      29.90R
GRAND MARAIS     N/A     56  29  35 N6        29.86R
G MARAIS ARPRT CLEAR     48  25  40 NW7       29.89R
$$
MNZ029>031-032-039>041-046>048-054>057-064-040500-
   West Central Minnesota

CITY           SKY/WX    TMP DP  RH WIND       PRES   REMARKS
FERGUS FALLS   CLEAR     54  27  35 N13       29.99R
WHEATON        CLEAR     52  25  35 NW6       30.01R
MORRIS         CLEAR     54  27  35 N12       29.98R
ALEXANDRIA     CLEAR     51  34  52 CALM      29.99R
ELBOW LAKE     FAIR      56  30  36 N12G18    29.98R
WADENA         CLEAR     50  27  40 NW3       29.96R
GLENWOOD       CLEAR     52  30  43 CALM      29.98R
APPLETON       CLEAR     52  30  43 CALM      29.99R
BENSON         CLEAR     48  27  43 CALM      30.00R
ORTONVILLE     CLEAR     55  34  44 NW5       29.99R
MADISON        CLEAR     54  28  37 CALM      30.00R
WILLMAR        FAIR      54  34  47 NW3       30.00R
$$
MNZ033>034-036-042>043-049>051-058-059-040500-
   Central Minnesota

CITY           SKY/WX    TMP DP  RH WIND       PRES   REMARKS
ST CLOUD       FAIR      50  39  66 NW3       29.95R
SAUK CENTRE    FAIR      49  33  53 CALM      29.98R
PAYNESVILLE    CLEAR     44  32  62 W5        29.98R
AITKIN         CLEAR     43  34  70 CALM      29.95R
PINE RIVER     CLEAR     45  34  65 CALM      29.99R
BRAINERD       CLEAR     44  34  67 CALM      29.97R
STAPLES        CLEAR     46  32  57 CALM      29.97R
LONG PRAIRIE   FAIR      50  32  50 CALM      29.98R
LITTLE FALLS   CLEAR     48  32  53 CALM      29.97R
LITCHFIELD     CLEAR     59  36  41 NW5       29.96R
BUFFALO        FAIR      55  47  74 W5        29.96R
MAPLE LAKE     CLEAR     55  47  75 NW3       29.95R
$$
MNZ037-044-045-052-053-040500-
   East Central Minnesota

CITY           SKY/WX    TMP DP  RH WIND       PRES   REMARKS
PRINCETON      PTCLDY    57  37  47 N6        29.95R
MORA           PTCLDY    54  36  50 CALM      29.96R
CAMBRIDGE      MOCLDY    55  43  62 CALM      29.92R
RUSH CITY      CLOUDY    50  44  79 CALM      29.93R
MOOSE LAKE     PTCLDY    48  34  57 CALM      29.92R
HINCKLEY       FAIR      52  43  71 CALM      29.93R
CLOQUET        CLEAR     45  30  57 W5        29.94R
MCGREGOR       CLEAR     46  32  57 CALM      29.96R
$$
MNZ071>073-080-081-089-090-097-098-040500-
   Southwest Minnesota

CITY           SKY/WX    TMP DP  RH WIND       PRES   REMARKS
MONTEVIDEO     CLEAR     54  27  35 CALM      30.01R
GRANITE FALLS  CLEAR     52  28  39 N3        30.01R
CANBY          CLEAR     52  30  42 CALM      30.02R
MARSHALL       CLEAR     55  25  30 N7        29.99R
REDWOOD FALLS  PTCLDY    61  31  32 N8        29.96R
OLIVIA         PTCLDY    54  30  40 NW6       29.97R
PIPESTONE      CLEAR     55  27  33 NE9       29.99R
WINDOM         MOCLDY    57  41  54 CALM      29.95S
WORTHINGTON    PTCLDY    57  36  44 N13       29.97R
JACKSON        MOCLDY    59  39  47 N13       29.95R
TRACY          CLEAR     56  28  33 N7        29.99R
SLAYTON        PTCLDY    54  29  39 CALM      30.00R
$$
MNZ065>067-074>077-082>085-091>093-040500-
   South Central Minnesota

CITY           SKY/WX    TMP DP  RH WIND       PRES   REMARKS
MANKATO          N/A    N/A N/A N/A MISG        N/A
NEW ULM        MOCLDY    57  43  58 N3        29.95R
ST JAMES       CLOUDY    63  39  42 NW8       29.95S
FAIRMONT       CLOUDY    63  43  48 N10       29.91S
GLENCOE        PTCLDY    57  46  68 NW3       29.94R
FARIBAULT      CLOUDY    55  52  88 CALM      29.90F
OWATONNA       CLOUDY    57  52  82 N5        29.90S
WASECA         CLOUDY    55  50  82 NE7       29.91F
ALBERT LEA     CLOUDY    61  54  77 N8        29.88S
$$
MNZ078>079-086>088-094>096-040500-
   Southeast Minnesota

CITY           SKY/WX    TMP DP  RH WIND       PRES   REMARKS
ROCHESTER      CLOUDY    59  56  89 E10       29.87R
RED WING       CLOUDY    55  54  94 CALM      29.89R
STANTON        CLOUDY    55  52  88 CALM      29.89S
DODGE CENTER   CLOUDY    57  54  88 N8        29.88R
WINONA         DRIZZLE   61  59  94 SE9       29.84F
AUSTIN         CLOUDY    59  55  88 NE7       29.86S
PRESTON        LGT RAIN  58  56  94 E12G17    29.87F
$$
ABBREVIATIONS USED IN REMARKS
   TC - TEMPERATURES IN CELSIUS
  WCI - WIND CHILL INDEX
   HX - HEAT INDEX
  VSB - VISIBILITY
$$



USA.gov is the U.S. government's official web portal to all federal, state and local government web resources and services.